Location: Unspecified
(0.0000°N, 0.0000°E)
Time: 04:31:44
(UTC+00:00)

S-56A Canister/Altair - Pass Details

Date: 03 December 2023
Orbit: 640 x 2488 km, 38.9° (Epoch: 24 February)

Event Time Altitude Azimuth Distance (km) Brightness Sun altitude
Rises 20:52:31 0° 301° (WNW) 4,447 11.7 -41.5°
Reaches altitude 10° 20:55:09 10° 297° (WNW) 3,692 11.2 -42.1°
Maximum altitude 21:05:01 61° 219° (SW) 2,204 9.7 -44.2°
Drops below altitude 10° 21:18:56 10° 142° (SE) 5,045 11.6 -47.1°
Sets 21:23:14 0° 138° (SE) 6,139 12.1 -48.0°
